Location: Unspecified
(38.9820°N, 94.4650°W)
Time: 19:11:20
(UTC-06:00)

CZ-3 Stage 3 - Visible Passes

Search period start: 17 November 2017 00:00
Search period end: 27 November 2017 00:00
Orbit: 416 x 34781 km, 31.0° (Epoch: 17 November)

Date Brightness Start Highest point End Pass type
(mag) Time Alt. Az. Time Alt. Az. Time Alt. Az.
18 Nov 5.5 06:28:49 10° WSW 06:39:01 42° S 13:34:28 10° S visible
19 Nov 5.2 02:59:30 26° ESE 02:59:30 26° ESE 03:06:50 10° ESE visible
21 Nov 5.5 06:19:38 10° WSW 06:29:49 41° S 13:20:45 10° S visible
22 Nov 5.4 02:50:42 24° ESE 02:50:42 24° ESE 02:57:21 10° ESE visible
24 Nov 5.5 06:10:27 10° WSW 06:20:38 40° S 13:06:52 10° S visible
25 Nov 5.6 02:41:53 22° ESE 02:41:53 22° ESE 02:47:51 10° ESE visible
